Temp
-11 -11 -11 -11 -11 -11 -11 -12 -12 -12 -12 -13 -13 -13 -13 -13 -12 -12 -13 -13 -12 -12 -12 -13 -14 -15 -15 -15 -15 -15 -14 -14 -14 -13 -12 -12 -11 -11 -11 -12 -12 -12 -12 -11
-11 -11 -11 -11 -11 -11 -11 -12 -12 -12 -12 -12 -13 -13 -13 -13 -13 -13 -13 -13 -13 -13 -13 -14 -15 -16 -16 -15 -15 -15 -15 -15 -14 -14 -13 -13 -13 -12 -12 -12 -14 -12 -12 -12
-11 -11 -12 -12 -11 -11 -12 -12 -12 -12 -12 -13 -13 -13 -13 -13 -13 -13 -14 -14 -14 -13 -13 -15 -16 -16 -16 -16 -16 -16 -15 -15 -15 -15 -15 -14 -14 -14 -13 -14 -16 -15 -13 -13
-11 -12 -12 -12 -12 -12 -12 -12 -12 -12 -12 -12 -13 -13 -13 -13 -13 -13 -14 -14 -14 -14 -15 -16 -16 -16 -16 -16 -16 -16 -16 -16 -16 -16 -15 -15 -15 -14 -15 -15 -15 -16 -14 -13
-12 -12 -12 -12 -12 -12 -12 -12 -12 -12 -13 -13 -13 -13 -13 -13 -13 -14 -14 -14 -15 -16 -17 -17 -17 -17 -17 -17 -17 -17 -16 -17 -16 -16 -16 -16 -15 -15 -16 -16 -16 -15 -16 -14
-12 -12 -12 -12 -13 -13 -13 -13 -13 -13 -13 -13 -13 -14 -14 -14 -14 -14 -15 -15 -16 -16 -17 -17 -17 -17 -18 -17 -17 -17 -17 -17 -17 -17 -17 -17 -16 -16 -16 -16 -16 -17 -16 -15
-12 -12 -13 -13 -13 -13 -13 -13 -13 -13 -14 -14 -14 -14 -15 -14 -14 -15 -15 -15 -16 -17 -17 -17 -17 -17 -17 -18 -18 -17 -18 -17 -17 -18 -18 -18 -17 -17 -18 -18 -17 -18 -16 -15
-13 -13 -13 -13 -14 -14 -14 -14 -14 -14 -14 -14 -14 -14 -15 -15 -15 -15 -15 -16 -16 -17 -17 -17 -17 -18 -18 -18 -18 -18 -18 -18 -18 -18 -18 -19 -19 -19 -19 -19 -17 -18 -17 -15
-13 -14 -14 -14 -14 -14 -14 -15 -15 -15 -15 -14 -14 -14 -15 -15 -15 -15 -16 -16 -17 -17 -17 -17 -17 -18 -19 -18 -18 -18 -18 -18 -18 -18 -19 -19 -20 -20 -20 -20 -19 -18 -17 -16
-14 -14 -14 -14 -15 -15 -15 -15 -15 -15 -15 -15 -14 -14 -15 -15 -15 -15 -16 -17 -17 -17 -17 -17 -18 -19 -19 -19 -19 -19 -19 -19 -19 -19 -19 -20 -21 -21 -22 -22 -22 -21 -20 -17
-14 -14 -14 -15 -15 -15 -15 -15 -16 -16 -16 -16 -15 -15 -15 -16 -15 -16 -16 -17 -17 -17 -17 -18 -17 -19 -19 -19 -19 -19 -19 -19 -19 -19 -21 -21 -22 -23 -23 -24 -25 -24 -22 -20
-15 -14 -15 -15 -15 -15 -16 -16 -16 -16 -16 -16 -16 -15 -16 -15 -16 -16 -16 -17 -17 -18 -18 -18 -18 -18 -19 -19 -19 -19 -20 -20 -19 -20 -21 -21 -23 -24 -26 -27 -27 -26 -26 -24
-15 -15 -15 -15 -15 -16 -16 -16 -16 -16 -16 -16 -16 -15 -17 -16 -16 -16 -16 -17 -18 -18 -18 -18 -18 -18 -19 -19 -20 -20 -20 -20 -20 -21 -21 -23 -25 -26 -27 -27 -27 -26 -26 -25
-15 -15 -16 -16 -16 -15 -16 -16 -16 -16 -16 -16 -15 -15 -17 -17 -16 -16 -16 -17 -18 -18 -18 -18 -18 -18 -19 -20 -20 -20 -20 -20 -21 -21 -22 -25 -26 -28 -27 -27 -27 -26 -26 -25
-16 -15 -16 -16 -16 -16 -15 -16 -16 -16 -17 -16 -16 -16 -15 -16 -16 -16 -16 -17 -18 -18 -18 -18 -18 -19 -19 -20 -20 -20 -20 -20 -21 -22 -24 -26 -27 -27 -27 -27 -27 -26 -25 -25
-16 -15 -16 -16 -17 -16 -15 -16 -17 -16 -17 -16 -16 -16 -16 -17 -17 -16 -16 -17 -18 -18 -18 -18 -18 -19 -19 -20 -20 -20 -20 -21 -22 -23 -26 -27 -28 -27 -27 -27 -26 -26 -25 -25
-16 -16 -16 -15 -16 -16 -15 -16 -16 -16 -17 -17 -16 -17 -17 -17 -17 -16 -16 -17 -18 -18 -19 -19 -19 -19 -19 -20 -21 -21 -21 -21 -22 -23 -26 -27 -27 -27 -27 -27 -27 -27 -25 -24
-16 -17 -17 -16 -16 -15 -15 -15 -16 -16 -17 -16 -16 -17 -17 -17 -17 -17 -17 -17 -18 -18 -19 -19 -19 -19 -19 -20 -21 -21 -21 -21 -22 -23 -25 -27 -27 -27 -27 -27 -27 -25 -23 -22
-17 -17 -17 -17 -16 -15 -15 -16 -16 -16 -15 -17 -16 -16 -17 -17 -17 -17 -17 -17 -18 -19 -19 -19 -19 -19 -19 -20 -21 -21 -21 -21 -22 -23 -24 -26 -27 -28 -27 -27 -25 -24 -23 -22
-17 -18 -18 -17 -17 -16 -15 -16 -16 -16 -16 -16 -16 -16 -17 -17 -17 -17 -17 -17 -18 -19 -19 -19 -19 -19 -19 -20 -21 -21 -21 -21 -22 -23 -24 -25 -26 -27 -26 -26 -24 -24 -23 -21
-17 -17 -18 -18 -17 -15 -15 -17 -17 -17 -17 -16 -16 -16 -17 -17 -17 -17 -17 -18 -18 -19 -19 -19 -19 -19 -19 -20 -21 -21 -21 -21 -22 -23 -23 -24 -24 -25 -25 -24 -23 -23 -22 -21
-18 -18 -17 -18 -17 -15 -16 -16 -17 -17 -17 -17 -16 -16 -17 -17 -18 -18 -18 -17 -18 -19 -19 -19 -19 -19 -19 -20 -21 -21 -21 -21 -22 -22 -23 -24 -23 -24 -25 -24 -23 -22 -22 -21
-18 -18 -18 -17 -16 -16 -16 -17 -17 -17 -17 -17 -17 -17 -17 -17 -17 -18 -18 -18 -18 -19 -19 -19 -19 -19 -19 -20 -21 -21 -21 -21 -22 -21 -22 -22 -22 -23 -23 -23 -22 -22 -21 -21
-18 -18 -18 -17 -15 -16 -17 -17 -18 -17 -17 -17 -17 -17 -17 -17 -17 -18 -18 -18 -18 -19 -19 -19 -19 -19 -19 -20 -21 -21 -21 -21 -21 -21 -22 -22 -22 -22 -21 -21 -22 -22 -21 -21
-18 -18 -17 -16 -16 -17 -17 -18 -18 -17 -17 -17 -18 -17 -17 -17 -17 -17 -18 -18 -18 -19 -19 -19 -19 -19 -19 -20 -21 -21 -22 -22 -22 -21 -21 -22 -22 -22 -22 -21 -21 -22 -21 -21
-18 -17 -18 -17 -17 -17 -18 -18 -18 -17 -17 -18 -18 -18 -17 -17 -17 -18 -18 -19 -19 -19 -19 -19 -19 -19 -19 -20 -21 -21 -21 -22 -22 -22 -21 -21 -22 -22 -21 -21 -21 -22 -21 -21
Height
5805 5804 5804 5803 5802 5800 5800 5798 5796 5795 5794 5791 5788 5785 5781 5778 5774 5769 5764 5758 5751 5745 5738 5730 5721 5714 5708 5703 5697 5690 5686 5680 5678 5674 5671 5666 5666 5665 5670 5675 5682 5687 5691 5692
5801 5799 5799 5798 5797 5796 5795 5794 5792 5790 5787 5785 5782 5779 5775 5771 5768 5763 5757 5750 5744 5737 5729 5720 5712 5708 5701 5693 5688 5679 5670 5666 5662 5658 5655 5650 5647 5645 5644 5652 5658 5662 5670 5674
5795 5795 5793 5793 5792 5791 5789 5787 5785 5784 5782 5779 5776 5774 5769 5765 5760 5755 5749 5742 5736 5728 5720 5712 5704 5698 5691 5684 5677 5669 5660 5654 5648 5643 5639 5633 5630 5628 5623 5627 5637 5644 5649 5652
5790 5789 5787 5787 5786 5785 5783 5781 5779 5777 5775 5773 5768 5765 5761 5759 5753 5746 5739 5734 5727 5718 5711 5703 5695 5688 5679 5672 5665 5658 5649 5641 5635 5629 5624 5620 5615 5613 5608 5607 5614 5620 5627 5633
5784 5782 5781 5780 5779 5778 5776 5774 5772 5770 5767 5765 5761 5756 5751 5748 5743 5737 5731 5724 5717 5708 5700 5692 5683 5675 5667 5659 5653 5647 5639 5631 5623 5616 5609 5604 5600 5596 5594 5590 5590 5597 5601 5611
5776 5775 5774 5772 5771 5770 5768 5765 5763 5761 5758 5757 5753 5747 5743 5739 5734 5727 5721 5716 5707 5700 5692 5683 5672 5664 5656 5650 5644 5635 5626 5618 5610 5602 5593 5586 5581 5577 5572 5570 5567 5568 5574 5582
5769 5768 5767 5766 5765 5762 5760 5758 5755 5754 5751 5749 5745 5740 5734 5730 5725 5722 5716 5708 5699 5692 5685 5676 5664 5654 5646 5640 5633 5623 5613 5606 5597 5589 5580 5569 5562 5555 5548 5542 5542 5540 5545 5555
5763 5763 5761 5759 5757 5756 5753 5751 5749 5744 5742 5739 5736 5733 5728 5724 5719 5714 5707 5699 5692 5684 5675 5666 5654 5644 5637 5630 5621 5612 5602 5592 5582 5574 5565 5554 5543 5534 5525 5515 5511 5512 5514 5527
5755 5754 5753 5752 5750 5749 5746 5744 5741 5737 5734 5732 5729 5726 5724 5716 5711 5706 5699 5692 5684 5676 5668 5658 5645 5635 5627 5619 5611 5600 5590 5579 5570 5558 5546 5534 5522 5509 5498 5487 5479 5480 5481 5493
5749 5747 5747 5745 5743 5741 5739 5737 5734 5731 5727 5723 5721 5718 5711 5707 5701 5695 5690 5685 5677 5668 5659 5648 5635 5625 5617 5609 5600 5590 5578 5566 5554 5541 5528 5515 5500 5483 5468 5456 5451 5451 5454 5462
5742 5741 5742 5740 5737 5735 5733 5730 5727 5724 5721 5715 5712 5713 5704 5699 5694 5689 5684 5678 5671 5662 5652 5641 5629 5618 5609 5599 5590 5578 5566 5553 5540 5525 5510 5495 5477 5457 5439 5430 5427 5429 5431 5438
5735 5733 5733 5733 5731 5728 5725 5723 5719 5716 5715 5709 5706 5706 5698 5693 5688 5684 5679 5672 5663 5652 5642 5632 5622 5611 5601 5591 5581 5569 5556 5540 5525 5508 5492 5473 5452 5431 5418 5414 5413 5412 5415 5420
5727 5726 5725 5724 5725 5721 5718 5716 5712 5709 5707 5704 5697 5698 5692 5685 5681 5676 5671 5663 5654 5646 5637 5626 5615 5604 5592 5582 5570 5557 5543 5528 5511 5493 5475 5453 5430 5412 5404 5402 5400 5402 5405 5410
5718 5718 5718 5717 5715 5712 5710 5709 5705 5701 5699 5694 5693 5687 5686 5679 5673 5669 5661 5654 5647 5638 5629 5619 5609 5596 5583 5572 5560 5547 5533 5516 5498 5479 5458 5435 5417 5404 5396 5393 5395 5397 5400 5404
5709 5709 5709 5709 5706 5703 5702 5701 5698 5694 5694 5685 5687 5678 5677 5669 5665 5661 5655 5649 5640 5630 5622 5612 5602 5590 5576 5564 5553 5539 5524 5506 5487 5466 5443 5424 5410 5403 5397 5395 5394 5395 5397 5398
5700 5699 5700 5700 5698 5695 5692 5695 5690 5688 5685 5680 5676 5674 5668 5665 5659 5654 5647 5640 5633 5625 5617 5607 5595 5582 5569 5557 5546 5531 5515 5498 5480 5457 5435 5418 5409 5404 5399 5395 5393 5392 5392 5395
5689 5689 5689 5687 5688 5687 5684 5688 5684 5681 5678 5674 5669 5666 5659 5657 5651 5646 5640 5633 5627 5619 5611 5601 5588 5576 5564 5552 5540 5527 5512 5494 5476 5454 5433 5421 5413 5405 5399 5394 5391 5390 5392 5393
5679 5678 5677 5677 5675 5674 5677 5675 5674 5671 5668 5665 5661 5657 5652 5648 5644 5638 5633 5626 5620 5612 5604 5594 5582 5571 5558 5546 5535 5522 5508 5492 5476 5457 5439 5424 5415 5405 5399 5395 5394 5392 5393 5395
5668 5668 5666 5665 5664 5667 5668 5667 5665 5662 5662 5658 5653 5649 5644 5640 5637 5632 5626 5620 5613 5606 5598 5588 5577 5567 5554 5542 5531 5520 5507 5492 5477 5460 5445 5433 5418 5407 5403 5399 5397 5398 5398 5398
5657 5658 5658 5656 5654 5652 5658 5659 5657 5652 5650 5648 5646 5639 5635 5633 5630 5624 5619 5613 5606 5600 5592 5583 5572 5562 5551 5539 5529 5520 5508 5494 5479 5465 5452 5440 5427 5418 5412 5408 5404 5402 5400 5398
5644 5646 5647 5645 5641 5645 5649 5649 5647 5645 5643 5638 5635 5630 5628 5627 5622 5616 5612 5606 5601 5594 5587 5578 5570 5560 5548 5537 5528 5520 5508 5496 5484 5470 5458 5448 5439 5432 5424 5417 5414 5411 5406 5406
5631 5633 5634 5634 5633 5633 5640 5637 5639 5634 5631 5628 5625 5622 5620 5617 5613 5608 5604 5600 5594 5589 5582 5573 5565 5556 5545 5535 5527 5520 5510 5499 5489 5479 5466 5458 5448 5443 5435 5427 5422 5419 5417 5417
5615 5621 5621 5622 5622 5626 5626 5628 5627 5623 5618 5616 5615 5613 5610 5608 5605 5600 5597 5593 5588 5583 5577 5569 5561 5553 5542 5534 5526 5519 5511 5502 5493 5485 5475 5468 5458 5448 5443 5437 5431 5429 5428 5430
5602 5605 5605 5608 5613 5615 5616 5616 5615 5611 5606 5604 5604 5603 5601 5600 5597 5593 5590 5586 5581 5576 5571 5563 5557 5550 5541 5532 5524 5519 5512 5504 5496 5489 5483 5475 5468 5463 5455 5449 5445 5441 5441 5442
5590 5590 5595 5596 5602 5606 5603 5600 5600 5597 5595 5594 5593 5592 5592 5592 5589 5585 5581 5578 5574 5570 5566 5559 5552 5546 5538 5530 5523 5518 5513 5506 5500 5493 5486 5481 5475 5468 5463 5458 5455 5454 5450 5449
5579 5581 5582 5588 5591 5590 5589 5588 5588 5585 5585 5584 5583 5584 5584 5582 5579 5576 5574 5570 5566 5563 5559 5553 5548 5541 5534 5527 5520 5516 5513 5507 5502 5497 5490 5485 5481 5475 5471 5468 5464 5461 5460 5459
Wind_Speed
21 21 22 22 22 21 21 18 19 21 23 25 29 31 35 40 43 44 42 49 51 51 56 55 51 49 48 46 48 49 48 47 43 40 44 46 60 68 73 73 68 68 66 59
22 23 25 28 26 25 26 26 28 30 30 29 31 33 37 41 42 42 43 48 48 51 56 53 50 49 47 46 45 45 47 48 47 44 45 41 41 64 78 79 80 73 75 81
24 26 28 32 33 31 33 34 36 36 36 36 37 38 40 44 43 41 46 45 49 53 57 47 48 49 51 48 47 45 45 46 47 47 44 44 42 42 59 80 82 86 76 74
26 28 29 33 38 40 41 41 42 43 44 42 41 42 42 44 42 42 45 46 51 52 50 46 50 53 53 52 47 45 45 46 47 49 47 45 46 41 43 57 83 83 87 73
27 28 29 32 35 41 42 42 43 44 44 44 39 40 42 43 39 43 44 48 48 47 48 54 55 52 49 50 47 45 45 47 49 51 51 52 51 50 48 48 67 81 92 89
26 26 28 30 32 35 36 39 41 42 42 40 38 39 39 38 38 44 43 49 46 48 51 59 56 52 46 43 45 47 48 50 53 51 54 57 57 58 56 52 53 91 97 93
25 26 28 29 31 33 35 36 38 40 38 37 34 36 36 36 38 38 42 48 48 49 54 59 54 48 46 44 47 51 53 54 54 55 56 59 62 63 64 63 58 74 99 102
26 26 28 29 31 32 34 35 36 39 39 38 35 35 35 33 37 39 42 47 49 52 56 61 58 49 44 44 49 54 56 57 60 61 61 64 67 70 75 66 59 65 95 102
27 27 28 30 32 33 34 35 36 37 36 37 37 35 33 34 37 41 42 46 51 53 58 61 56 47 44 47 52 57 58 60 62 66 68 72 77 83 79 71 63 60 79 106
28 31 29 31 32 33 34 35 36 36 36 36 35 35 37 34 41 45 45 45 49 53 57 57 57 47 45 49 55 60 62 65 68 69 71 77 84 81 83 68 56 54 61 95
30 31 31 31 32 33 34 34 34 34 33 34 37 34 33 38 39 45 44 43 45 51 54 56 58 48 46 50 57 61 64 68 70 69 73 79 84 86 68 55 49 48 52 72
30 34 32 32 33 34 35 32 33 34 33 34 36 36 38 38 39 44 45 41 42 50 54 56 57 51 48 51 56 60 65 71 74 73 78 86 88 71 48 41 43 41 38 49
33 35 34 35 35 36 35 32 32 34 33 34 41 39 35 40 41 43 47 42 44 49 52 57 56 58 52 53 58 62 68 72 71 75 83 88 74 53 40 38 35 33 34 38
36 35 33 35 37 39 38 33 32 36 33 38 37 42 30 38 41 43 49 44 44 46 50 57 58 58 55 54 59 63 68 72 72 78 86 75 54 39 27 20 21 26 27 26
38 40 37 35 36 39 38 35 34 37 31 40 34 43 44 40 42 43 48 44 44 46 50 55 59 58 58 55 59 63 69 71 73 82 77 59 38 27 20 16 16 19 23 18
42 44 40 40 38 39 41 34 35 36 35 38 38 38 42 38 40 43 47 48 46 47 46 54 57 60 59 55 58 63 68 69 74 78 69 45 29 23 20 17 17 16 15 7
45 45 45 46 42 42 41 33 35 36 33 33 36 36 38 38 38 42 46 50 47 46 47 53 59 62 62 54 56 61 65 66 71 68 60 36 30 23 19 15 9 2 5 10
43 44 46 47 46 46 41 39 36 36 33 35 38 41 42 38 37 42 46 49 47 48 54 55 57 61 61 56 54 59 63 63 65 63 58 44 34 30 17 7 4 4 10 5
45 44 44 45 47 44 39 41 40 41 39 35 42 47 43 41 40 43 46 49 49 50 51 53 54 59 58 57 51 56 60 58 62 57 54 51 39 21 9 7 5 7 6 5
47 45 44 43 43 44 39 40 41 44 42 41 43 48 46 40 41 41 45 48 48 50 49 52 54 56 58 56 49 52 55 54 54 50 55 55 41 25 11 13 13 18 16 18
53 48 49 49 50 45 41 39 43 43 42 42 46 49 47 43 45 45 43 47 46 48 47 46 50 54 55 53 46 48 50 49 50 48 49 48 42 32 23 22 21 27 16 20
55 55 50 51 52 47 44 46 44 44 45 46 47 51 47 44 43 45 42 45 45 47 44 44 47 52 50 50 43 44 45 45 44 44 42 42 35 33 22 24 35 23 19 27
57 54 54 54 52 51 46 43 41 44 49 49 49 50 50 45 43 44 41 44 44 47 42 43 46 49 47 50 39 40 41 41 39 40 34 33 37 30 26 26 25 20 15 15
55 55 56 51 47 45 44 42 44 50 53 52 50 47 47 44 44 44 41 42 41 46 38 41 44 42 44 47 37 34 35 35 35 35 31 31 27 23 21 21 27 25 12 10
53 53 52 52 46 39 39 42 43 48 51 51 48 48 47 47 46 46 40 40 39 41 35 36 38 38 42 45 36 29 30 31 31 30 31 31 24 26 25 18 17 16 14 15
53 53 51 46 38 39 42 44 43 47 49 51 47 43 44 47 51 48 37 37 36 36 31 31 34 35 41 43 34 26 26 25 26 26 27 28 27 22 21 19 15 19 15 9
Wind_Direction
272 269 249 245 256 260 263 267 278 285 291 297 306 317 324 325 325 322 320 324 323 327 328 324 314 308 305 302 297 295 291 292 289 284 276 284 263 252 251 245 236 247 239 246
269 267 254 249 255 254 264 268 273 276 280 286 292 303 316 320 317 315 320 322 323 327 327 320 313 311 308 304 300 297 300 296 294 293 284 283 290 257 244 243 238 237 241 239
273 270 261 253 254 257 262 267 271 275 280 290 293 296 305 312 314 313 322 323 323 326 325 315 310 313 311 308 306 304 303 303 302 303 301 292 296 295 259 244 241 236 239 238
276 273 270 265 260 262 266 273 277 283 287 293 297 301 303 309 313 315 323 324 327 326 322 316 312 313 310 306 306 308 311 309 308 310 310 305 302 297 293 263 241 244 237 239
276 274 274 274 273 271 276 283 289 292 294 295 298 299 304 310 316 318 325 330 329 326 325 328 320 315 310 309 309 311 313 315 316 313 313 311 306 300 288 276 244 234 239 238
275 276 277 278 280 283 286 289 291 293 295 294 294 298 308 315 318 325 328 331 331 327 327 332 324 317 311 311 312 316 317 318 321 315 315 314 310 304 296 276 264 235 235 234
280 280 281 281 284 286 290 293 295 294 294 295 299 304 315 319 322 326 328 332 329 328 326 331 326 316 312 313 315 320 323 324 323 319 317 314 311 309 308 298 260 243 232 233
277 278 280 282 284 288 291 295 298 299 301 302 305 307 314 316 319 330 330 331 326 326 328 332 331 316 314 317 321 323 326 327 325 322 318 316 316 313 314 300 281 247 233 231
280 279 280 284 288 292 295 297 298 299 299 298 299 302 313 313 319 330 327 329 326 325 329 334 332 316 317 322 324 330 330 330 327 324 321 320 318 316 313 299 285 256 238 224
282 284 284 285 288 290 293 297 299 298 299 300 302 307 316 315 322 331 329 329 324 323 330 335 338 320 321 325 328 333 333 331 327 323 321 321 317 312 309 296 280 258 245 228
285 285 285 286 287 290 293 296 295 295 297 301 304 314 314 317 323 327 328 324 324 321 331 339 342 326 322 326 328 332 333 331 328 325 322 320 318 316 304 288 273 265 248 232
285 287 289 288 289 291 293 294 293 293 296 298 304 312 315 313 319 324 324 321 320 322 332 339 342 331 324 325 330 331 332 329 330 327 325 324 322 316 300 281 274 269 259 239
285 289 292 291 291 292 293 294 292 293 298 302 298 312 316 312 317 321 325 325 323 321 331 334 340 340 328 327 332 333 335 335 332 328 328 328 324 317 297 286 280 256 256 248
285 288 289 293 294 294 295 292 293 295 301 297 309 304 316 312 316 318 324 326 320 320 330 334 338 339 335 330 332 337 336 337 334 331 332 331 328 323 313 297 270 262 266 264
283 285 288 290 289 289 291 291 293 295 302 298 306 302 306 309 312 319 320 323 322 320 326 331 335 339 338 331 334 338 339 340 336 335 336 335 333 331 326 304 288 278 287 282
280 283 286 288 286 287 288 294 292 297 302 299 298 306 305 307 310 314 317 325 324 319 327 330 334 340 339 332 336 340 341 342 339 343 339 342 339 337 328 313 301 293 293 157
279 281 284 285 285 284 285 291 291 295 296 299 304 309 308 310 313 314 318 323 322 320 326 328 332 338 341 334 337 342 344 344 345 352 349 347 347 339 331 317 308 276 185 196
279 276 277 281 283 282 290 294 293 296 301 303 307 307 310 309 313 315 320 321 322 324 324 326 330 334 341 338 339 344 347 347 352 356 355 346 334 336 327 360 313 104 69 169
274 274 276 277 280 282 283 290 300 295 295 307 299 299 305 311 310 309 316 320 322 325 329 328 331 336 342 341 339 346 348 350 353 356 358 0 351 349 15 1 339 21 14 90
271 273 275 278 278 278 283 293 298 296 295 296 301 299 300 310 308 309 313 318 321 324 328 327 333 337 343 343 338 346 350 354 357 357 2 356 4 10 37 11 31 31 34 119
266 269 271 272 273 278 282 288 290 293 292 292 295 296 299 310 308 308 313 317 320 324 327 329 334 336 342 343 337 346 351 357 2 1 360 1 4 14 20 15 26 26 61 115
265 267 267 270 272 279 285 283 292 288 287 288 289 292 299 302 305 306 310 313 318 321 325 328 333 338 341 344 338 345 352 359 3 10 9 11 10 10 347 9 10 31 47 115
261 265 270 269 273 275 280 284 284 285 282 283 288 290 292 300 303 304 307 310 316 319 323 328 331 337 344 345 338 342 351 357 3 9 9 18 15 8 16 359 41 50 74 107
261 262 265 266 271 279 277 280 284 279 279 282 286 288 290 301 302 300 302 305 313 317 324 333 330 337 345 343 338 339 347 356 4 8 18 18 31 24 18 47 42 35 73 92
257 258 261 263 276 280 276 276 274 274 275 277 279 285 291 298 302 299 296 301 307 315 326 333 330 335 340 343 336 333 343 354 2 11 10 15 23 22 24 7 2 30 53 92
259 259 262 267 266 268 268 273 274 270 272 276 285 290 295 298 299 291 291 294 303 311 325 330 328 334 336 338 333 327 338 351 357 5 19 11 16 19 24 37 39 16 35 53